This is the latest recevied weather packets stored in our database for station/object KM4KMS. If no packets are shown the sender has not sent any weather packets the latest 10 day(s).
| Time | Temp. | Humidity | Pressure | Rain* | Wind** | Luminosity | Snow |
|---|---|---|---|---|---|---|---|
| 1778029496 | 15° C | 99% | 1005.4 hPa | 0 mm | - | 0 W/m² | - |
| 1778029192 | 15° C | 98% | 1005.5 hPa | 0 mm | - | 0 W/m² | - |
| 1778028890 | 15° C | 98% | 1005.5 hPa | 1.27 mm | - | 0 W/m² | - |
| 1778028585 | 15° C | 97% | 1005.3 hPa | 1.27 mm | - | 0 W/m² | - |
| 1778028283 | 15.56° C | 97% | 1005.6 hPa | 0 mm | - | 0 W/m² | - |
| 1778027979 | 15.56° C | 96% | 1005.9 hPa | 0 mm | - | 0 W/m² | - |
| 1778027676 | 15.56° C | 96% | 1006 hPa | 0 mm | - | 0 W/m² | - |
| 1778027372 | 15.56° C | 94% | 1005.6 hPa | 3.05 mm | - | 0 W/m² | - |
| 1778027068 | 16.11° C | 94% | 1005.7 hPa | 7.87 mm | - | 1 W/m² | - |
| 1778026764 | 16.11° C | 92% | 1005.9 hPa | 6.1 mm | - | 2 W/m² | - |
| 1778026461 | 16.11° C | 91% | 1005.8 hPa | 1.78 mm | - | 3 W/m² | - |
| 1778026158 | 16.67° C | 91% | 1006 hPa | 0 mm | - | 1 W/m² | - |
| 1778025856 | 16.11° C | 91% | 1005.7 hPa | 0 mm | - | 5 W/m² | - |
| 1778025552 | 16.11° C | 91% | 1005.9 hPa | 1.27 mm | - | 18 W/m² | - |
| 1778025250 | 16.11° C | 93% | 1005.5 hPa | 1.78 mm | - | 13 W/m² | - |
| 1778024947 | 16.11° C | 94% | 1005.6 hPa | 3.56 mm | - | 15 W/m² | - |
| 1778024644 | 16.11° C | 95% | 1005.9 hPa | 1.78 mm | - | 12 W/m² | - |
| 1778024341 | 16.11° C | 95% | 1006.4 hPa | 0 mm | - | 4 W/m² | - |
| 1778024039 | 16.11° C | 93% | 1006.3 hPa | 1.27 mm | - | 3 W/m² | - |
| 1778023736 | 16.11° C | 93% | 1005.7 hPa | 1.27 mm | - | 10 W/m² | - |
| 1778023434 | 16.11° C | 93% | 1005.6 hPa | 6.1 mm | - | 13 W/m² | - |
| 1778023130 | 16.11° C | 93% | 1005.9 hPa | 7.87 mm | - | 10 W/m² | - |
| 1778022828 | 16.67° C | 91% | 1006 hPa | 4.83 mm | - | 10 W/m² | - |
| 1778022526 | 16.67° C | 89% | 1006.7 hPa | 4.32 mm | - | 8 W/m² | - |
| 1778022223 | 17.22° C | 86% | 1006.5 hPa | 6.1 mm | - | 10 W/m² | - |
* Rain latest hour (hover to see other rain measurements)
** Current wind speed in m/s (hover to see current wind gust speed)